| time (UTC) | temp C | wind direction | speed KPH | gust KPH | rain 1hr cm | rain 24hr cm | rain mn cm | humidity % | barometer mb |
| 20260507060435 | 12 | 237 | 1.6 | 9.7 | 0.00 | 0.00 | 0.00 | 88 | 1009.8 |
| 20260507055933 | 12 | 254 | 1.6 | 6.4 | 0.00 | 0.00 | 0.00 | 88 | 1009.5 |
| 20260507055441 | 12 | 279 | 1.6 | 6.4 | 0.00 | 0.00 | 0.00 | 87 | 1009.5 |
| 20260507054938 | 12 | 317 | 1.6 | 6.4 | 0.00 | 0.00 | 0.00 | 86 | 1009.0 |
| 20260507054432 | 12 | 332 | 4.8 | 6.4 | 0.00 | 0.00 | 0.00 | 85 | 1009.3 |
| 20260507053933 | 12 | 101 | 4.8 | 11.3 | 0.00 | 0.00 | 0.00 | 83 | 1009.7 |
| 20260507053441 | 13 | 253 | 0.0 | 12.9 | 0.00 | 0.00 | 0.00 | 82 | 1009.8 |
| 20260507052935 | 13 | 235 | 6.4 | 14.5 | 0.00 | 0.00 | 0.00 | 80 | 1009.1 |
| 20260507052432 | 13 | 281 | 6.4 | 9.7 | 0.00 | 0.00 | 0.00 | 81 | 1008.7 |
| 20260507051935 | 13 | 310 | 9.7 | 11.3 | 0.00 | 0.00 | 0.00 | 80 | 1008.6 |
| 20260507051438 | 13 | 349 | 0.0 | 8.0 | 0.00 | 0.00 | 0.00 | 81 | 1008.5 |
| 20260507050932 | 13 | 267 | 6.4 | 12.9 | 0.00 | 0.00 | 0.00 | 82 | 1008.6 |
| 20260507050435 | 13 | 325 | 9.7 | 17.7 | 0.00 | 0.00 | 0.00 | 82 | 1008.4 |
| 20260507045933 | 13 | 304 | 4.8 | 4.8 | 0.00 | 0.00 | 0.00 | 84 | 1008.7 |
| 20260507045432 | 13 | 320 | 0.0 | 4.8 | 0.00 | 0.00 | 0.00 | 84 | 1008.3 |
| 20260507044931 | 13 | 283 | 1.6 | 8.0 | 0.00 | 0.00 | 0.00 | 84 | 1008.3 |
| 20260507044438 | 13 | 328 | 4.8 | 6.4 | 0.00 | 0.00 | 0.00 | 84 | 1008.4 |
| 20260507043938 | 13 | 347 | 0.0 | 6.4 | 0.00 | 0.00 | 0.00 | 84 | 1008.0 |
| 20260507043435 | 13 | 313 | 1.6 | 4.8 | 0.00 | 0.00 | 0.00 | 84 | 1008.2 |
| 20260507042933 | 14 | 325 | 6.4 | 8.0 | 0.00 | 0.00 | 0.00 | 84 | 1008.5 |
| 20260507042432 | 14 | 303 | 1.6 | 6.4 | 0.00 | 0.00 | 0.00 | 84 | 1008.8 |
| 20260507041932 | 14 | 260 | 1.6 | 16.1 | 0.00 | 0.00 | 0.00 | 83 | 1008.7 |
| 20260507041435 | 14 | 322 | 20.9 | 17.7 | 0.00 | 0.00 | 0.00 | 85 | 1008.7 |
| 20260507040932 | 14 | 314 | 4.8 | 8.0 | 0.00 | 0.00 | 0.00 | 85 | 1008.7 |
| 20260507040431 | 14 | 23 | 4.8 | 14.5 | 0.00 | 0.00 | 0.00 | 85 | 1008.6 |
| 20260507035932 | 14 | 0 | 11.3 | 9.7 | 0.00 | 0.00 | 0.00 | 85 | 1008.5 |
| 20260507035432 | 15 | 29 | 11.3 | 9.7 | 0.00 | 0.00 | 0.00 | 86 | 1008.4 |
| 20260507034938 | 15 | 338 | 11.3 | 8.0 | 0.00 | 0.00 | 0.00 | 87 | 1008.3 |
| 20260507034432 | 15 | 39 | 1.6 | 6.4 | 0.00 | 0.00 | 0.00 | 87 | 1008.1 |
| 20260507033932 | 15 | 347 | 4.8 | 9.7 | 0.00 | 0.00 | 0.00 | 88 | 1008.4 |
| 20260507033432 | 16 | 355 | 4.8 | 8.0 | 0.00 | 0.00 | 0.00 | 88 | 1008.5 |
| 20260507032931 | 16 | 17 | 4.8 | 14.5 | 0.00 | 0.00 | 0.00 | 88 | 1008.4 |
| 20260507032432 | 16 | 44 | 4.8 | 16.1 | 0.00 | 0.00 | 0.00 | 88 | 1008.1 |
| 20260507031942 | 17 | 328 | 9.7 | 16.1 | 0.00 | 0.00 | 0.00 | 90 | 1008.3 |
| 20260507031441 | 17 | 236 | 1.6 | 9.7 | 0.00 | 0.00 | 0.00 | 92 | 1007.8 |
| 20260507030932 | 17 | 240 | 0.0 | 0.0 | 0.00 | 0.00 | 0.00 | 92 | 1007.8 |
| 20260507030438 | 17 | 240 | 0.0 | 1.6 | 0.00 | 0.00 | 0.00 | 91 | 1007.7 |
| 20260507025935 | 17 | 240 | 0.0 | 1.6 | 0.00 | 0.00 | 0.00 | 91 | 1007.7 |
| 20260507025432 | 18 | 247 | 0.0 | 1.6 | 0.00 | 0.00 | 0.00 | 91 | 1007.8 |
| 20260507024932 | 18 | 248 | 0.0 | 3.2 | 0.00 | 0.00 | 0.00 | 91 | 1007.7 |
| 20260507024432 | 18 | 237 | 0.0 | 3.2 | 0.00 | 0.00 | 0.00 | 90 | 1007.8 |
| 20260507023932 | 18 | 263 | 0.0 | 3.2 | 0.00 | 0.00 | 0.00 | 90 | 1007.8 |
| 20260507023441 | 18 | 333 | 0.0 | 6.4 | 0.00 | 0.00 | 0.00 | 90 | 1007.7 |
| 20260507022932 | 18 | 232 | 0.0 | 3.2 | 0.00 | 0.00 | 0.00 | 90 | 1007.9 |
| 20260507022441 | 18 | 217 | 0.0 | 4.8 | 0.00 | 0.00 | 0.00 | 89 | 1007.9 |
| 20260507021935 | 18 | 165 | 1.6 | 3.2 | 0.00 | 0.00 | 0.00 | 89 | 1008.0 |
| 20260507021435 | 18 | 225 | 0.0 | 1.6 | 0.00 | 0.00 | 0.00 | 88 | 1007.8 |
| 20260507020935 | 18 | 223 | 0.0 | 3.2 | 0.00 | 0.00 | 0.00 | 86 | 1007.8 |
| 20260507020435 | 18 | 254 | 0.0 | 4.8 | 0.00 | 0.00 | 0.00 | 84 | 1008.0 |
| 20260507015941 | 19 | 194 | 1.6 | 4.8 | 0.00 | 0.00 | 0.00 | 82 | 1007.9 |
| 20260507015432 | 20 | 205 | 1.6 | 11.3 | 0.00 | 0.00 | 0.00 | 79 | 1007.9 |
| 20260507014935 | 20 | 188 | 0.0 | 6.4 | 0.00 | 0.00 | 0.00 | 78 | 1007.8 |
| 20260507014432 | 20 | 117 | 4.8 | 3.2 | 0.00 | 0.00 | 0.00 | 78 | 1007.8 |
| 20260507013936 | 20 | 223 | 4.8 | 3.2 | 0.00 | 0.00 | 0.00 | 78 | 1007.5 |
| 20260507013436 | 20 | 169 | 4.8 | 3.2 | 0.00 | 0.00 | 0.00 | 78 | 1007.6 |
| 20260507012932 | 20 | 221 | 0.0 | 6.4 | 0.00 | 0.00 | 0.00 | 78 | 1007.4 |
| 20260507012435 | 20 | 192 | 0.0 | 6.4 | 0.00 | 0.00 | 0.00 | 78 | 1007.4 |
| 20260507011932 | 20 | 198 | 0.0 | 9.7 | 0.00 | 0.00 | 0.00 | 78 | 1007.7 |
| 20260507011436 | 20 | 188 | 0.0 | 6.4 | 0.00 | 0.00 | 0.00 | 78 | 1007.7 |
| 20260507010432 | 20 | 239 | 0.0 | 6.4 | 0.00 | 0.00 | 0.00 | 78 | 1007.9 |
| 20260507005932 | 20 | 211 | 1.6 | 4.8 | 0.00 | 0.00 | 0.00 | 78 | 1007.5 |
| 20260507005432 | 20 | 180 | 0.0 | 3.2 | 0.00 | 0.00 | 0.00 | 78 | 1007.2 |
| 20260507004935 | 20 | 181 | 0.0 | 3.2 | 0.00 | 0.00 | 0.00 | 77 | 1007.2 |
| 20260507004432 | 20 | 196 | 1.6 | 3.2 | 0.00 | 0.00 | 0.00 | 77 | 1007.1 |
| 20260507003932 | 20 | 212 | 0.0 | 8.0 | 0.00 | 0.00 | 0.00 | 76 | 1007.2 |
| 20260507003432 | 20 | 183 | 1.6 | 8.0 | 0.00 | 0.00 | 0.00 | 76 | 1007.2 |
| 20260507002932 | 20 | 201 | 0.0 | 3.2 | 0.00 | 0.00 | 0.00 | 76 | 1007.2 |
| 20260507002436 | 20 | 254 | 6.4 | 6.4 | 0.00 | 0.00 | 0.00 | 76 | 1007.0 |
| 20260507001933 | 20 | 351 | 4.8 | 9.7 | 0.00 | 0.00 | 0.00 | 76 | 1007.0 |
| 20260507001432 | 20 | 170 | 4.8 | 8.0 | 0.00 | 0.00 | 0.00 | 75 | 1006.9 |
| 20260507000935 | 20 | 291 | 4.8 | 9.7 | 0.00 | 0.00 | 0.00 | 75 | 1006.8 |
| 20260507000435 | 20 | 217 | 1.6 | 11.3 | 0.00 | 0.00 | 0.00 | 75 | 1006.8 |
| 20260506235935 | 20 | 173 | 4.8 | 3.2 | 0.00 | 0.00 | 0.00 | 75 | 1006.9 |
| 20260506235433 | 20 | 166 | 1.6 | 6.4 | 0.00 | 0.00 | 0.00 | 75 | 1006.9 |
| 20260506234932 | 20 | 160 | 4.8 | 8.0 | 0.00 | 0.00 | 0.00 | 75 | 1006.8 |
| 20260506234432 | 20 | 222 | 6.4 | 8.0 | 0.00 | 0.00 | 0.00 | 75 | 1006.9 |
| 20260506233935 | 20 | 11 | 1.6 | 8.0 | 0.00 | 0.00 | 0.00 | 75 | 1006.8 |
| 20260506233433 | 20 | 207 | 4.8 | 6.4 | 0.00 | 0.00 | 0.00 | 75 | 1006.8 |
| 20260506232938 | 20 | 194 | 0.0 | 6.4 | 0.00 | 0.00 | 0.00 | 75 | 1006.9 |
| 20260506232432 | 20 | 142 | 4.8 | 8.0 | 0.00 | 0.00 | 0.00 | 74 | 1006.8 |
| 20260506231932 | 20 | 244 | 6.4 | 9.7 | 0.00 | 0.00 | 0.00 | 74 | 1006.7 |
| 20260506231436 | 21 | 234 | 1.6 | 11.3 | 0.00 | 0.00 | 0.00 | 74 | 1006.7 |
| 20260506230933 | 21 | 202 | 1.6 | 11.3 | 0.00 | 0.00 | 0.00 | 73 | 1006.6 |
| 20260506230434 | 21 | 147 | 4.8 | 9.7 | 0.00 | 0.00 | 0.00 | 74 | 1006.6 |
| 20260506225935 | 21 | 142 | 9.7 | 12.9 | 0.00 | 0.00 | 0.00 | 73 | 1006.6 |
| 20260506225432 | 21 | 175 | 4.8 | 11.3 | 0.00 | 0.00 | 0.00 | 73 | 1006.7 |
| 20260506224935 | 21 | 175 | 1.6 | 3.2 | 0.00 | 0.00 | 0.00 | 74 | 1006.7 |
| 20260506224436 | 21 | 162 | 4.8 | 11.3 | 0.00 | 0.00 | 0.00 | 73 | 1006.5 |
| 20260506223935 | 21 | 161 | 9.7 | 9.7 | 0.00 | 0.00 | 0.00 | 73 | 1006.5 |
| 20260506223435 | 21 | 165 | 9.7 | 8.0 | 0.00 | 0.00 | 0.00 | 73 | 1006.7 |
| 20260506222932 | 21 | 199 | 0.0 | 8.0 | 0.00 | 0.00 | 0.00 | 74 | 1006.7 |
| 20260506222435 | 21 | 171 | 4.8 | 6.4 | 0.00 | 0.00 | 0.00 | 73 | 1006.8 |
| 20260506221932 | 21 | 222 | 4.8 | 12.9 | 0.00 | 0.00 | 0.00 | 72 | 1006.7 |
| 20260506221435 | 21 | 194 | 6.4 | 11.3 | 0.00 | 0.00 | 0.00 | 72 | 1006.6 |
| 20260506220932 | 21 | 247 | 1.6 | 6.4 | 0.00 | 0.00 | 0.00 | 72 | 1006.5 |
| 20260506220438 | 21 | 63 | 4.8 | 8.0 | 0.00 | 0.00 | 0.00 | 72 | 1006.6 |
| 20260506215932 | 21 | 190 | 6.4 | 11.3 | 0.00 | 0.00 | 0.00 | 73 | 1006.5 |
| 20260506215435 | 21 | 166 | 6.4 | 12.9 | 0.00 | 0.00 | 0.00 | 73 | 1006.6 |
| 20260506214938 | 21 | 231 | 1.6 | 11.3 | 0.00 | 0.00 | 0.00 | 74 | 1006.4 |
| 20260506214432 | 21 | 192 | 6.4 | 11.3 | 0.00 | 0.00 | 0.00 | 74 | 1006.5 |
| 20260506213932 | 21 | 258 | 14.5 | 9.7 | 0.00 | 0.00 | 0.00 | 73 | 1006.4 |
| 20260506213431 | 21 | 184 | 1.6 | 8.0 | 0.00 | 0.00 | 0.00 | 73 | 1006.3 |
| 20260506212932 | 21 | 200 | 1.6 | 14.5 | 0.00 | 0.00 | 0.00 | 72 | 1006.4 |
| 20260506212431 | 21 | 151 | 11.3 | 9.7 | 0.00 | 0.00 | 0.00 | 73 | 1006.3 |
| 20260506211932 | 21 | 227 | 0.0 | 11.3 | 0.00 | 0.00 | 0.00 | 73 | 1006.3 |
| 20260506211438 | 21 | 186 | 9.7 | 16.1 | 0.00 | 0.00 | 0.00 | 73 | 1006.4 |
| 20260506210940 | 21 | 261 | 6.4 | 9.7 | 0.00 | 0.00 | 0.00 | 74 | 1006.3 |
| 20260506210435 | 20 | 156 | 14.5 | 11.3 | 0.00 | 0.00 | 0.00 | 74 | 1006.3 |
| 20260506205938 | 20 | 175 | 9.7 | 9.7 | 0.00 | 0.00 | 0.00 | 74 | 1006.2 |
| 20260506205435 | 20 | 251 | 4.8 | 14.5 | 0.00 | 0.00 | 0.00 | 75 | 1006.2 |
| 20260506204935 | 20 | 307 | 6.4 | 9.7 | 0.00 | 0.00 | 0.00 | 74 | 1006.1 |
| 20260506204432 | 20 | 192 | 6.4 | 9.7 | 0.00 | 0.00 | 0.00 | 75 | 1005.9 |
| 20260506203934 | 20 | 170 | 1.6 | 17.7 | 0.00 | 0.00 | 0.00 | 75 | 1006.0 |
| 20260506203435 | 20 | 0 | 4.8 | 16.1 | 0.00 | 0.00 | 0.00 | 75 | 1006.2 |
| 20260506202935 | 20 | 174 | 1.6 | 12.9 | 0.00 | 0.00 | 0.00 | 75 | 1006.2 |
| 20260506202433 | 20 | 134 | 19.3 | 17.7 | 0.00 | 0.00 | 0.00 | 75 | 1006.2 |
| 20260506201932 | 20 | 225 | 1.6 | 12.9 | 0.00 | 0.00 | 0.00 | 76 | 1006.0 |
| 20260506201435 | 20 | 302 | 9.7 | 16.1 | 0.00 | 0.00 | 0.00 | 76 | 1006.1 |
| 20260506200933 | 20 | 218 | 1.6 | 14.5 | 0.00 | 0.00 | 0.00 | 76 | 1006.3 |
| 20260506200432 | 19 | 188 | 4.8 | 14.5 | 0.00 | 0.00 | 0.00 | 77 | 1006.3 |
| 20260506195932 | 19 | 163 | 1.6 | 14.5 | 0.00 | 0.00 | 0.00 | 78 | 1006.3 |
| 20260506195432 | 19 | 148 | 11.3 | 11.3 | 0.00 | 0.00 | 0.00 | 78 | 1006.4 |
| 20260506194932 | 19 | 194 | 9.7 | 14.5 | 0.00 | 0.00 | 0.00 | 78 | 1006.5 |
| 20260506194435 | 18 | 187 | 14.5 | 19.3 | 0.00 | 0.00 | 0.00 | 78 | 1006.7 |
| 20260506193932 | 18 | 211 | 4.8 | 11.3 | 0.00 | 0.00 | 0.00 | 78 | 1006.6 |
| 20260506193433 | 18 | 227 | 9.7 | 9.7 | 0.00 | 0.00 | 0.00 | 78 | 1006.7 |
| 20260506192935 | 18 | 216 | 1.6 | 12.9 | 0.00 | 0.00 | 0.00 | 78 | 1006.7 |
| 20260506192432 | 18 | 241 | 1.6 | 11.3 | 0.00 | 0.00 | 0.00 | 78 | 1006.8 |
| 20260506191935 | 18 | 191 | 9.7 | 16.1 | 0.00 | 0.00 | 0.00 | 78 | 1006.8 |
| 20260506191432 | 18 | 140 | 16.1 | 14.5 | 0.00 | 0.00 | 0.00 | 78 | 1006.8 |
| 20260506190932 | 18 | 189 | 0.0 | 16.1 | 0.00 | 0.00 | 0.00 | 78 | 1006.9 |
| 20260506190435 | 18 | 213 | 11.3 | 14.5 | 0.00 | 0.00 | 0.00 | 78 | 1006.9 |
| 20260506185932 | 18 | 177 | 4.8 | 19.3 | 0.00 | 0.00 | 0.00 | 78 | 1006.8 |
| 20260506185432 | 18 | 153 | 24.1 | 14.5 | 0.00 | 0.00 | 0.00 | 77 | 1006.9 |
| 20260506184931 | 18 | 240 | 4.8 | 17.7 | 0.00 | 0.00 | 0.00 | 77 | 1007.0 |
| 20260506184433 | 18 | 169 | 4.8 | 25.7 | 0.00 | 0.00 | 0.00 | 77 | 1007.0 |
| 20260506183933 | 18 | 202 | 6.4 | 12.9 | 0.00 | 0.00 | 0.00 | 77 | 1007.1 |
| 20260506183435 | 18 | 288 | 6.4 | 14.5 | 0.00 | 0.00 | 0.00 | 77 | 1007.0 |
| 20260506182932 | 18 | 251 | 0.0 | 14.5 | 0.00 | 0.00 | 0.00 | 77 | 1007.1 |
| 20260506182435 | 18 | 173 | 6.4 | 17.7 | 0.00 | 0.00 | 0.00 | 77 | 1007.0 |
| 20260506181935 | 18 | 165 | 11.3 | 25.7 | 0.00 | 0.00 | 0.00 | 77 | 1007.0 |
| 20260506181438 | 18 | 153 | 16.1 | 11.3 | 0.00 | 0.00 | 0.00 | 79 | 1007.1 |
| 20260506180935 | 18 | 168 | 9.7 | 12.9 | 0.00 | 0.00 | 0.00 | 79 | 1007.1 |
| 20260506180433 | 18 | 190 | 4.8 | 17.7 | 0.00 | 0.00 | 0.00 | 80 | 1007.2 |
| 20260506175935 | 18 | 148 | 11.3 | 14.5 | 0.00 | 0.00 | 0.00 | 80 | 1007.2 |
| 20260506175435 | 18 | 169 | 1.6 | 12.9 | 0.00 | 0.00 | 0.00 | 80 | 1007.3 |
| 20260506174935 | 18 | 158 | 19.3 | 14.5 | 0.00 | 0.00 | 0.00 | 80 | 1007.3 |
| 20260506174432 | 18 | 141 | 9.7 | 20.9 | 0.00 | 0.00 | 0.00 | 80 | 1007.4 |
| 20260506173935 | 18 | 188 | 9.7 | 29.0 | 0.00 | 0.00 | 0.00 | 80 | 1007.4 |
| 20260506173438 | 19 | 167 | 1.6 | 20.9 | 0.00 | 0.00 | 0.00 | 81 | 1007.2 |
| 20260506172938 | 19 | 214 | 4.8 | 19.3 | 0.00 | 0.00 | 0.00 | 81 | 1007.2 |
| 20260506172432 | 19 | 190 | 4.8 | 11.3 | 0.00 | 0.00 | 0.00 | 82 | 1007.3 |
| 20260506171932 | 19 | 223 | 4.8 | 9.7 | 0.00 | 0.00 | 0.00 | 84 | 1007.2 |
| 20260506171431 | 19 | 218 | 0.0 | 11.3 | 0.00 | 0.00 | 0.00 | 84 | 1007.1 |
| 20260506170938 | 18 | 213 | 1.6 | 3.2 | 0.00 | 0.00 | 0.00 | 84 | 1007.3 |
| 20260506170432 | 18 | 177 | 4.8 | 9.7 | 0.00 | 0.00 | 0.00 | 84 | 1007.3 |
| 20260506165932 | 18 | 270 | 1.6 | 16.1 | 0.00 | 0.00 | 0.00 | 84 | 1007.3 |
| 20260506165434 | 18 | 162 | 4.8 | 11.3 | 0.00 | 0.00 | 0.00 | 85 | 1007.4 |
| 20260506164935 | 18 | 161 | 14.5 | 11.3 | 0.00 | 0.00 | 0.00 | 85 | 1007.4 |
| 20260506164438 | 18 | 205 | 6.4 | 16.1 | 0.00 | 0.00 | 0.00 | 84 | 1007.6 |
| 20260506163938 | 18 | 150 | 9.7 | 6.4 | 0.00 | 0.00 | 0.00 | 85 | 1007.8 |
| 20260506163432 | 18 | 169 | 0.0 | 8.0 | 0.00 | 0.00 | 0.00 | 85 | 1008.1 |
| 20260506162935 | 18 | 205 | 11.3 | 11.3 | 0.00 | 0.00 | 0.00 | 84 | 1008.3 |
| 20260506162435 | 18 | 134 | 4.8 | 9.7 | 0.00 | 0.00 | 0.00 | 82 | 1008.4 |
| 20260506161936 | 18 | 205 | 9.7 | 9.7 | 0.00 | 0.00 | 0.00 | 82 | 1008.6 |
| 20260506161435 | 18 | 172 | 4.8 | 9.7 | 0.00 | 0.00 | 0.00 | 81 | 1008.8 |
| 20260506160932 | 18 | 143 | 4.8 | 14.5 | 0.00 | 0.00 | 0.00 | 81 | 1008.8 |
| 20260506160433 | 18 | 152 | 9.7 | 9.7 | 0.00 | 0.00 | 0.00 | 80 | 1008.8 |
| 20260506155932 | 18 | 189 | 4.8 | 9.7 | 0.00 | 0.00 | 0.00 | 80 | 1008.8 |
| 20260506155431 | 18 | 173 | 1.6 | 6.4 | 0.00 | 0.00 | 0.00 | 79 | 1008.9 |
| 20260506154936 | 18 | 240 | 1.6 | 6.4 | 0.00 | 0.00 | 0.00 | 79 | 1008.9 |
| 20260506154435 | 18 | 157 | 6.4 | 11.3 | 0.00 | 0.00 | 0.00 | 77 | 1008.9 |
| 20260506153932 | 18 | 155 | 14.5 | 19.3 | 0.00 | 0.00 | 0.00 | 74 | 1008.8 |
| 20260506153433 | 19 | 233 | 9.7 | 29.0 | 0.00 | 0.00 | 0.00 | 72 | 1008.6 |
| 20260506152932 | 20 | 163 | 35.4 | 24.1 | 0.00 | 0.00 | 0.00 | 69 | 1008.6 |
| 20260506152433 | 20 | 112 | 1.6 | 14.5 | 0.00 | 0.00 | 0.00 | 67 | 1008.6 |
| 20260506151932 | 20 | 217 | 4.8 | 19.3 | 0.00 | 0.00 | 0.00 | 65 | 1008.4 |
| 20260506151432 | 21 | 177 | 9.7 | 22.5 | 0.00 | 0.00 | 0.00 | 65 | 1008.5 |
| 20260506150932 | 20 | 284 | 1.6 | 14.5 | 0.00 | 0.00 | 0.00 | 66 | 1008.6 |
| 20260506150435 | 20 | 169 | 9.7 | 22.5 | 0.00 | 0.00 | 0.00 | 68 | 1008.7 |
| 20260506145933 | 20 | 199 | 9.7 | 12.9 | 0.00 | 0.00 | 0.00 | 66 | 1008.7 |
| 20260506145435 | 21 | 317 | 4.8 | 12.9 | 0.00 | 0.00 | 0.00 | 64 | 1008.7 |
| 20260506144935 | 21 | 184 | 6.4 | 14.5 | 0.00 | 0.00 | 0.00 | 63 | 1008.7 |
| 20260506144432 | 21 | 194 | 16.1 | 19.3 | 0.00 | 0.00 | 0.00 | 63 | 1008.9 |
| 20260506143932 | 21 | 155 | 29.0 | 14.5 | 0.00 | 0.00 | 0.00 | 63 | 1008.8 |
| 20260506143438 | 21 | 159 | 4.8 | 14.5 | 0.00 | 0.00 | 0.00 | 63 | 1008.7 |
| 20260506142932 | 21 | 157 | 1.6 | 14.5 | 0.00 | 0.00 | 0.00 | 63 | 1008.6 |
| 20260506142432 | 21 | 144 | 6.4 | 19.3 | 0.00 | 0.00 | 0.00 | 62 | 1008.8 |
| 20260506141932 | 21 | 130 | 24.1 | 17.7 | 0.00 | 0.00 | 0.00 | 62 | 1008.7 |
| 20260506141432 | 21 | 165 | 1.6 | 14.5 | 0.00 | 0.00 | 0.00 | 63 | 1008.8 |
| 20260506140938 | 21 | 163 | 9.7 | 24.1 | 0.00 | 0.00 | 0.00 | 64 | 1008.6 |
| 20260506140432 | 21 | 155 | 9.7 | 16.1 | 0.00 | 0.00 | 0.00 | 64 | 1008.6 |
| 20260506135938 | 21 | 171 | 9.7 | 14.5 | 0.00 | 0.00 | 0.00 | 65 | 1008.7 |
| 20260506135432 | 20 | 200 | 4.8 | 16.1 | 0.00 | 0.00 | 0.00 | 65 | 1008.7 |
| 20260506134932 | 20 | 144 | 11.3 | 8.0 | 0.00 | 0.00 | 0.00 | 65 | 1008.7 |
| 20260506134432 | 20 | 175 | 4.8 | 19.3 | 0.00 | 0.00 | 0.00 | 65 | 1008.6 |
| 20260506133935 | 20 | 132 | 4.8 | 12.9 | 0.00 | 0.00 | 0.00 | 66 | 1008.7 |
| 20260506133438 | 20 | 152 | 16.1 | 17.7 | 0.00 | 0.00 | 0.00 | 66 | 1008.8 |
| 20260506132935 | 20 | 9 | 1.6 | 27.4 | 0.00 | 0.00 | 0.00 | 66 | 1008.7 |
| 20260506132431 | 20 | 200 | 6.4 | 11.3 | 0.00 | 0.00 | 0.00 | 66 | 1008.8 |
| 20260506131932 | 20 | 165 | 9.7 | 17.7 | 0.00 | 0.00 | 0.00 | 66 | 1009.0 |
| 20260506131432 | 20 | 277 | 4.8 | 19.3 | 0.00 | 0.00 | 0.00 | 66 | 1009.0 |
| 20260506130938 | 20 | 240 | 9.7 | 14.5 | 0.00 | 0.00 | 0.00 | 66 | 1008.9 |
| 20260506130432 | 20 | 174 | 6.4 | 16.1 | 0.00 | 0.00 | 0.00 | 66 | 1008.9 |
| 20260506125935 | 20 | 188 | 4.8 | 22.5 | 0.00 | 0.00 | 0.00 | 67 | 1008.8 |
| 20260506125441 | 20 | 268 | 0.0 | 16.1 | 0.00 | 0.00 | 0.00 | 68 | 1008.8 |
| 20260506124935 | 20 | 155 | 9.7 | 19.3 | 0.00 | 0.00 | 0.00 | 67 | 1008.9 |
| 20260506124435 | 20 | 158 | 14.5 | 14.5 | 0.00 | 0.00 | 0.00 | 67 | 1008.8 |
| 20260506123932 | 20 | 281 | 1.6 | 25.7 | 0.00 | 0.00 | 0.00 | 67 | 1008.9 |
| 20260506123435 | 20 | 158 | 4.8 | 19.3 | 0.00 | 0.00 | 0.00 | 68 | 1008.8 |
| 20260506122935 | 20 | 162 | 11.3 | 17.7 | 0.00 | 0.00 | 0.00 | 69 | 1008.7 |
| 20260506122435 | 19 | 166 | 20.9 | 22.5 | 0.00 | 0.00 | 0.00 | 69 | 1008.6 |
| 20260506121932 | 19 | 159 | 20.9 | 22.5 | 0.00 | 0.00 | 0.00 | 70 | 1008.8 |
| 20260506121435 | 19 | 178 | 4.8 | 11.3 | 0.00 | 0.00 | 0.00 | 70 | 1008.8 |
| 20260506120935 | 18 | 162 | 9.7 | 14.5 | 0.00 | 0.00 | 0.00 | 70 | 1008.8 |
| 20260506120432 | 18 | 144 | 19.3 | 12.9 | 0.00 | 0.00 | 0.00 | 70 | 1008.9 |
| 20260506115932 | 18 | 184 | 6.4 | 17.7 | 0.00 | 0.00 | 0.00 | 71 | 1008.8 |
| 20260506115432 | 18 | 136 | 6.4 | 19.3 | 0.00 | 0.00 | 0.00 | 70 | 1008.8 |
| 20260506114932 | 18 | 161 | 4.8 | 17.7 | 0.00 | 0.00 | 0.00 | 71 | 1008.9 |
| 20260506114432 | 18 | 159 | 20.9 | 14.5 | 0.00 | 0.00 | 0.00 | 71 | 1008.8 |
| 20260506113931 | 18 | 165 | 4.8 | 14.5 | 0.00 | 0.00 | 0.00 | 72 | 1008.9 |
| 20260506113432 | 18 | 146 | 9.7 | 32.2 | 0.00 | 0.00 | 0.00 | 72 | 1009.0 |
| 20260506112932 | 18 | 165 | 14.5 | 27.4 | 0.00 | 0.00 | 0.00 | 71 | 1009.1 |
| 20260506112432 | 18 | 143 | 14.5 | 20.9 | 0.00 | 0.00 | 0.00 | 72 | 1008.9 |
| 20260506111935 | 18 | 69 | 6.4 | 20.9 | 0.00 | 0.00 | 0.00 | 72 | 1008.9 |
| 20260506111435 | 18 | 156 | 6.4 | 17.7 | 0.00 | 0.00 | 0.00 | 72 | 1008.9 |
| 20260506110935 | 18 | 168 | 11.3 | 16.1 | 0.00 | 0.00 | 0.00 | 73 | 1008.9 |
| 20260506110432 | 18 | 130 | 1.6 | 17.7 | 0.00 | 0.00 | 0.00 | 73 | 1008.8 |
| 20260506105938 | 18 | 182 | 9.7 | 24.1 | 0.00 | 0.00 | 0.00 | 74 | 1008.8 |
| 20260506105435 | 18 | 163 | 9.7 | 14.5 | 0.00 | 0.00 | 0.00 | 74 | 1008.9 |
| 20260506104938 | 18 | 170 | 0.0 | 14.5 | 0.00 | 0.00 | 0.00 | 74 | 1008.8 |
| 20260506104435 | 18 | 175 | 4.8 | 19.3 | 0.00 | 0.00 | 0.00 | 74 | 1008.7 |
| 20260506103932 | 18 | 203 | 11.3 | 20.9 | 0.00 | 0.00 | 0.00 | 75 | 1008.7 |
| 20260506103432 | 18 | 167 | 35.4 | 24.1 | 0.00 | 0.00 | 0.00 | 76 | 1008.7 |
| 20260506102931 | 18 | 167 | 6.4 | 16.1 | 0.00 | 0.00 | 0.00 | 76 | 1008.7 |
| 20260506102432 | 17 | 153 | 25.7 | 19.3 | 0.00 | 0.00 | 0.00 | 76 | 1008.7 |
| 20260506101932 | 17 | 157 | 11.3 | 12.9 | 0.00 | 0.00 | 0.00 | 75 | 1008.8 |
| 20260506101432 | 18 | 153 | 4.8 | 22.5 | 0.00 | 0.00 | 0.00 | 75 | 1008.8 |
| 20260506100933 | 18 | 156 | 1.6 | 19.3 | 0.00 | 0.00 | 0.00 | 75 | 1008.8 |
| 20260506100435 | 18 | 156 | 14.5 | 19.3 | 0.00 | 0.00 | 0.00 | 75 | 1008.7 |
| 20260506095938 | 18 | 165 | 11.3 | 24.1 | 0.00 | 0.00 | 0.00 | 75 | 1008.6 |
| 20260506095432 | 18 | 167 | 11.3 | 14.5 | 0.00 | 0.00 | 0.00 | 75 | 1008.7 |
| 20260506094935 | 18 | 150 | 14.5 | 22.5 | 0.00 | 0.00 | 0.00 | 75 | 1008.6 |
| 20260506094432 | 18 | 222 | 1.6 | 24.1 | 0.00 | 0.00 | 0.00 | 75 | 1008.6 |
| 20260506093932 | 18 | 171 | 4.8 | 17.7 | 0.00 | 0.00 | 0.00 | 74 | 1008.5 |
| 20260506093438 | 18 | 155 | 16.1 | 30.6 | 0.00 | 0.00 | 0.00 | 74 | 1008.5 |
| 20260506092938 | 18 | 184 | 6.4 | 19.3 | 0.00 | 0.00 | 0.00 | 75 | 1008.5 |
| 20260506092435 | 18 | 271 | 9.7 | 19.3 | 0.00 | 0.00 | 0.00 | 74 | 1008.6 |
| 20260506091935 | 18 | 134 | 9.7 | 20.9 | 0.00 | 0.00 | 0.00 | 74 | 1008.7 |
| 20260506091435 | 18 | 157 | 11.3 | 11.3 | 0.00 | 0.00 | 0.00 | 74 | 1008.7 |
| 20260506090935 | 18 | 124 | 1.6 | 14.5 | 0.00 | 0.00 | 0.00 | 74 | 1008.8 |
| 20260506090432 | 18 | 118 | 1.6 | 20.9 | 0.00 | 0.00 | 0.00 | 74 | 1008.7 |
| 20260506085932 | 18 | 168 | 16.1 | 16.1 | 0.00 | 0.00 | 0.00 | 74 | 1008.6 |
| 20260506085438 | 18 | 226 | 11.3 | 29.0 | 0.00 | 0.00 | 0.00 | 74 | 1008.7 |
| 20260506084932 | 18 | 160 | 24.1 | 32.2 | 0.00 | 0.00 | 0.00 | 74 | 1008.7 |
| 20260506084438 | 18 | 165 | 20.9 | 17.7 | 0.00 | 0.00 | 0.00 | 74 | 1008.9 |
| 20260506083932 | 18 | 176 | 9.7 | 17.7 | 0.00 | 0.00 | 0.00 | 74 | 1008.8 |
| 20260506083432 | 18 | 124 | 11.3 | 17.7 | 0.00 | 0.00 | 0.00 | 74 | 1008.8 |
| 20260506082941 | 18 | 161 | 4.8 | 27.4 | 0.00 | 0.00 | 0.00 | 74 | 1008.9 |
| 20260506082438 | 18 | 144 | 11.3 | 16.1 | 0.00 | 0.00 | 0.00 | 74 | 1008.8 |
| 20260506081933 | 18 | 148 | 24.1 | 17.7 | 0.00 | 0.00 | 0.00 | 74 | 1008.9 |
| 20260506081431 | 18 | 178 | 4.8 | 19.3 | 0.00 | 0.00 | 0.00 | 74 | 1008.9 |
| 20260506080938 | 18 | 178 | 9.7 | 19.3 | 0.00 | 0.00 | 0.00 | 74 | 1009.0 |
| 20260506080432 | 18 | 167 | 14.5 | 19.3 | 0.00 | 0.00 | 0.00 | 74 | 1008.9 |
| 20260506073432 | 18 | 146 | 6.4 | 12.9 | 0.00 | 0.00 | 0.00 | 74 | 1009.0 |
| 20260506072938 | 18 | 173 | 14.5 | 19.3 | 0.00 | 0.00 | 0.00 | 73 | 1009.0 |
| 20260506072439 | 18 | 166 | 0.0 | 17.7 | 0.00 | 0.00 | 0.00 | 73 | 1009.0 |
| 20260506071932 | 19 | 140 | 20.9 | 27.4 | 0.00 | 0.00 | 0.00 | 73 | 1009.0 |
| 20260506071438 | 19 | 176 | 9.7 | 25.7 | 0.00 | 0.00 | 0.00 | 73 | 1009.0 |
| 20260506070932 | 19 | 171 | 9.7 | 24.1 | 0.00 | 0.00 | 0.00 | 72 | 1009.1 |
| 20260506070435 | 19 | 183 | 6.4 | 19.3 | 0.00 | 0.00 | 0.00 | 73 | 1009.1 |
| 20260506062436 | 19 | 164 | 9.7 | 12.9 | 0.00 | 0.00 | 0.00 | 71 | 1009.2 |
| 20260506061932 | 19 | 161 | 14.5 | 19.3 | 0.00 | 0.00 | 0.00 | 71 | 1009.2 |
| 20260506061435 | 19 | 286 | 6.4 | 14.5 | 0.00 | 0.00 | 0.00 | 71 | 1009.3 |
| 20260506060932 | 19 | 150 | 1.6 | 16.1 | 0.00 | 0.00 | 0.00 | 71 | 1009.3 |